JE4YIZ-13 Weather Reports


time (UTC)temp
F
wind
direction
speed
knots
gust
knots
rain 1hr
in
rain 24hr
in
rain mn
in
humidity
%
barometer
mb
20260504110638 58 155 0.0 0.9 0.00 0.04 0.00 76 1013.9
20260504110153 58 155 0.0 0.9 0.00 0.35 0.00 75 1013.9
20260504100615 61 113 0.0 2.6 0.00 0.35 0.00 69 1013.1
20260504100126 61 139 1.7 2.6 0.00 0.63 0.00 69 1013.2
20260504090141 62 158 1.7 12.2 0.00 0.87 0.00 67 1012.6
20260504081627 64 150 2.6 12.2 0.00 0.87 0.00 64 1012.4
20260504081111 63 181 4.3 12.2 0.00 0.87 0.00 63 1012.4
20260504080612 64 75 3.5 12.2 0.00 0.87 0.00 62 1012.6
20260504080123 64 126 3.5 10.4 0.00 1.93 0.00 63 1012.4
20260504070129 64 98 2.6 16.5 0.00 4.41 0.00 62 1012.0
20260504060113 64 160 5.2 18.2 0.00 6.14 0.00 59 1011.3
20260504050621 66 109 5.2 13.9 0.00 6.14 0.00 52 1010.8
20260504050132 66 110 5.2 11.3 0.00 7.40 0.00 53 1010.8
20260504045616 66 191 4.3 19.1 0.00 7.40 0.00 45 1010.7
20260504045129 66 157 7.0 19.1 0.00 7.40 0.00 46 1010.8
20260504044633 66 181 4.3 14.8 0.00 7.40 0.00 51 1010.7
20260504044120 66 120 2.6 14.8 0.00 7.40 0.00 56 1010.7
20260504043633 66 134 4.3 12.2 0.00 7.40 0.00 54 1010.6
20260504043120 66 186 5.2 14.8 0.00 7.40 0.00 55 1010.5
20260504042628 66 172 5.2 14.8 0.00 7.40 0.00 55 1010.5
20260504042136 67 134 6.1 12.2 0.00 7.40 0.00 54 1010.5
20260504041628 66 120 7.8 15.6 0.00 7.40 0.00 54 1010.4
20260504041111 66 79 5.2 23.5 0.00 7.40 0.00 57 1010.3
20260504040623 66 136 7.8 23.5 0.00 7.40 0.00 56 1010.3
20260504040135 66 136 5.2 13.9 0.00 7.76 0.00 52 1010.2
20260504035621 66 144 5.2 18.2 0.00 7.76 0.00 55 1010.3
20260504035111 66 103 4.3 18.2 0.00 7.76 0.00 56 1010.3
20260504034619 67 139 5.2 14.8 0.00 7.76 0.00 54 1010.3
20260504034130 66 77 4.3 14.8 0.00 7.76 0.00 51 1010.3
20260504033618 67 115 4.3 12.2 0.00 7.76 0.00 53 1010.5
20260504033131 66 165 4.3 13.0 0.00 7.76 0.00 52 1010.3
20260504032618 66 128 5.2 13.9 0.00 7.76 0.00 50 1010.4
20260504032131 65 193 6.1 17.4 0.00 7.76 0.00 50 1010.2
20260504031613 65 138 7.0 17.4 0.00 7.76 0.00 51 1010.2
20260504031126 65 110 6.1 18.2 0.00 7.76 0.00 51 1010.1
20260504030636 65 182 8.7 18.2 0.00 7.76 0.00 50 1010.2
20260504030143 65 179 7.0 19.1 0.00 7.83 0.00 51 1010.1
20260504025635 65 166 6.1 15.6 0.00 7.83 0.00 52 1010.0
20260504025143 66 157 5.2 18.2 0.00 7.83 0.00 51 1010.0
20260504024635 65 154 5.2 18.2 0.00 7.83 0.00 53 1010.0
20260504024122 65 174 6.1 18.2 0.00 7.83 0.00 51 1010.0
20260504023635 65 161 7.0 18.2 0.00 7.83 0.00 51 1009.8
20260504023120 65 184 5.2 13.9 0.00 7.83 0.00 51 1009.9
20260504022614 64 162 5.2 13.9 0.00 7.83 0.00 53 1009.8
20260504022118 64 161 6.1 12.2 0.00 7.83 0.00 51 1009.9
20260504021631 64 124 4.3 16.5 0.00 7.83 0.00 50 1009.9
20260504021117 64 102 5.2 20.0 0.00 7.83 0.00 49 1010.2
20260504020631 64 180 7.0 13.9 0.00 7.83 0.00 50 1010.0
20260504020117 64 122 7.8 20.9 0.00 7.87 0.00 51 1009.7
20260504015630 65 122 4.3 13.0 0.00 7.87 0.00 51 1009.7
20260504015117 65 143 7.0 13.0 0.00 7.87 0.00 51 1009.7
20260504014626 65 26 2.6 14.8 0.00 7.87 0.00 53 1009.7
20260504014113 64 203 6.1 13.9 0.00 7.87 0.00 55 1009.9
20260504013626 63 107 5.2 17.4 0.00 7.87 0.00 58 1009.8
20260504013132 64 153 7.8 17.4 0.00 7.87 0.00 58 1009.7
20260504012622 63 168 7.8 23.5 0.00 7.87 0.00 58 1009.6
20260504012135 63 121 9.6 23.5 0.00 7.87 0.00 59 1009.5
20260504011622 63 136 8.7 17.4 0.00 7.87 0.00 58 1009.6
20260504011156 63 132 5.2 20.9 0.00 7.87 0.00 60 1009.4
20260504010638 63 115 7.0 20.9 0.00 7.87 0.00 61 1009.0
20260504010130 63 167 8.7 18.2 0.00 7.87 0.00 60 1008.9
20260504005638 63 128 4.3 18.2 0.00 7.87 0.00 61 1009.0
20260504005130 62 139 7.0 22.6 0.00 7.87 0.00 62 1009.0
20260504004617 62 162 3.5 24.3 0.00 7.87 0.00 63 1008.8
20260504004152 63 100 7.8 21.7 0.00 7.87 0.00 62 1008.9
20260504003617 63 158 7.0 14.8 0.00 7.87 0.00 64 1008.8
20260504003110 62 125 6.1 16.5 0.00 7.87 0.00 63 1008.6
20260504002622 62 122 8.7 17.4 0.00 7.87 0.00 63 1008.5
20260504002152 62 203 7.0 18.2 0.00 7.87 0.00 63 1008.6
20260504001618 62 46 8.7 18.2 0.00 7.87 0.00 63 1008.5
20260504001131 62 109 7.8 18.2 0.00 7.87 0.00 63 1008.4
20260504000618 62 118 7.8 20.0 0.00 7.87 0.00 63 1008.2
20260504000152 62 85 8.7 19.1 0.00 7.91 0.00 63 1008.6
20260503235618 62 123 7.8 19.1 0.00 7.91 0.00 65 1008.2
20260503235131 61 240 6.1 13.0 0.00 7.91 0.00 66 1008.2
20260503234613 61 215 7.0 14.8 0.00 7.91 0.00 67 1008.2
20260503234122 60 96 6.1 14.8 0.00 7.91 0.00 68 1008.2
20260503233636 60 136 5.2 12.2 0.00 7.91 0.00 68 1008.0
20260503233142 60 129 3.5 19.1 0.00 7.91 0.00 68 1007.9
20260503232633 60 124 7.8 19.1 0.00 7.91 0.00 67 1007.9
20260503232118 60 153 5.2 17.4 0.00 7.91 0.00 67 1007.8
20260503231628 60 95 5.2 15.6 0.00 7.91 0.00 67 1007.7
20260503231112 60 135 7.0 17.4 0.00 7.91 0.00 66 1007.7
20260503230613 60 185 8.7 16.5 0.00 7.91 0.00 66 1007.5
20260503225634 60 135 4.3 12.2 0.00 7.91 0.00 65 1007.4
20260503225119 60 89 3.5 17.4 0.00 7.91 0.00 65 1007.3
20260503224633 60 114 6.1 17.4 0.00 7.91 0.00 66 1007.3
20260503224144 60 131 3.5 12.2 0.00 7.91 0.00 66 1007.0
20260503223635 60 129 4.3 13.0 0.00 7.91 0.00 65 1007.2
20260503223119 60 136 5.2 19.1 0.00 7.91 0.00 65 1007.1
20260503222611 60 122 9.6 18.2 0.00 7.91 0.00 63 1007.0
20260503222122 60 194 7.0 18.2 0.00 7.91 0.00 63 1007.0
20260503221613 60 144 7.0 14.8 0.00 7.91 0.00 63 1006.6
20260503221111 60 107 7.0 14.8 0.00 7.91 0.00 65 1006.4
20260503220621 60 125 3.5 17.4 0.00 7.91 0.00 67 1006.4
20260503220132 60 231 7.8 20.0 0.00 8.11 0.00 67 1006.1
20260503215616 60 134 5.2 13.0 0.00 8.11 0.00 70 1005.9
20260503215129 60 117 7.0 14.8 0.00 8.11 0.00 72 1006.0
20260503214611 60 118 5.2 14.8 0.00 8.11 0.00 72 1006.0
20260503213637 60 158 7.8 18.2 0.00 8.11 0.00 69 1005.5
20260503213138 60 117 7.0 13.0 0.00 8.11 0.00 71 1005.5
20260503212628 60 96 5.2 8.7 0.00 8.11 0.00 71 1005.4
20260503212113 60 134 3.5 12.2 0.00 8.11 0.00 72 1005.4
20260503211621 60 132 1.7 12.2 0.00 8.11 0.00 73 1004.9
20260503211130 60 153 2.6 8.7 0.00 8.11 0.00 73 1004.8
20260503210614 60 128 2.6 7.8 0.00 8.11 0.00 73 1004.7
20260503210134 60 145 2.6 8.7 0.00 8.11 0.00 73 1004.8
20260503205622 60 117 4.3 10.4 0.00 8.11 0.00 73 1004.8
20260503205129 60 139 3.5 10.4 0.00 8.11 0.00 73 1004.7
20260503204611 60 167 1.7 7.8 0.00 8.11 0.00 73 1004.8
20260503204143 60 153 3.5 7.8 0.00 8.11 0.00 73 1004.8
20260503203631 60 151 2.6 8.7 0.00 8.11 0.00 73 1004.6
20260503203112 60 152 3.5 9.6 0.00 8.11 0.00 73 1004.7
20260503202622 60 129 4.3 9.6 0.00 8.11 0.00 73 1004.6
20260503202133 60 94 3.5 10.4 0.00 8.11 0.00 72 1004.8
20260503201615 60 123 4.3 10.4 0.00 8.11 0.00 73 1004.6
20260503201121 60 138 3.5 11.3 0.00 8.11 0.00 73 1004.6
20260503200652 60 163 3.5 12.2 0.00 8.11 0.00 73 1004.6
20260503200114 60 72 3.5 13.9 0.00 8.11 0.00 73 1004.6
20260503195645 60 137 5.2 13.9 0.00 8.11 0.00 73 1004.7
20260503195134 60 115 2.6 9.6 0.00 8.11 0.00 73 1004.6
20260503194616 60 146 3.5 14.8 0.00 8.11 0.00 73 1004.4
20260503194147 60 119 7.0 14.8 0.00 8.11 0.00 73 1004.5
20260503193630 60 162 1.7 6.1 0.00 8.11 0.00 74 1004.4
20260503193113 60 127 0.9 7.0 0.00 8.11 0.00 74 1004.2
20260503192622 60 160 1.7 7.8 0.00 8.11 0.00 74 1004.3
20260503192133 60 103 3.5 10.4 0.00 8.11 0.00 73 1004.3
20260503191615 60 115 3.5 8.7 0.00 8.11 0.00 74 1004.3
20260503191146 60 151 4.3 8.7 0.00 8.11 0.00 74 1004.5
20260503190635 60 124 1.7 7.0 0.00 8.11 0.00 74 1004.5
20260503190116 60 123 2.6 13.9 0.00 8.11 0.00 73 1004.6
20260503185124 60 140 4.3 11.3 0.00 8.11 0.00 73 1004.5
20260503184634 61 129 4.3 11.3 0.00 8.11 0.00 74 1004.5
20260503184118 61 122 2.6 13.9 0.00 8.11 0.00 74 1004.2
20260503183627 61 129 6.1 13.9 0.00 8.11 0.00 73 1004.3
20260503183134 61 129 6.1 13.0 0.00 8.11 0.00 73 1004.2
20260503182617 61 130 4.3 8.7 0.00 8.11 0.00 73 1004.1
20260503182127 61 147 4.3 12.2 0.00 8.11 0.00 74 1004.0
20260503181633 61 87 3.5 12.2 0.00 8.11 0.00 74 1004.1
20260503181115 61 122 1.7 9.6 0.00 8.11 0.00 74 1004.1
20260503180625 61 130 2.6 10.4 0.00 8.11 0.00 74 1004.1
20260503180133 61 115 4.3 9.6 0.00 8.11 0.00 74 1004.1
20260503175617 61 124 3.5 9.6 0.00 8.11 0.00 74 1004.1
20260503175128 61 174 2.6 8.7 0.00 8.11 0.00 75 1004.2
20260503174611 61 107 2.6 10.4 0.00 8.11 0.00 75 1004.2
20260503174133 61 114 3.5 10.4 0.00 8.11 0.00 75 1004.1
20260503173619 61 140 5.2 12.2 0.00 8.11 0.00 74 1004.0
20260503173149 61 128 4.3 11.3 0.00 8.11 0.00 74 1004.0
20260503172631 61 103 3.5 11.3 0.00 8.11 0.00 75 1004.2
20260503172120 61 129 3.5 8.7 0.00 8.11 0.00 75 1003.9
20260503171630 61 102 2.6 10.4 0.00 8.11 0.00 75 1004.0
20260503171114 61 106 4.3 8.7 0.00 8.11 0.00 76 1003.9
20260503170622 61 127 2.6 7.8 0.00 8.11 0.00 76 1003.9
20260503170153 61 135 4.3 10.4 0.00 8.11 0.00 76 1003.8
20260503160113 61 136 5.2 12.2 0.00 8.11 0.00 77 1003.1
20260503150611 62 124 2.6 11.3 0.00 8.11 0.00 75 1002.9
20260503150120 62 58 4.3 11.3 0.00 8.11 0.00 75 1003.0
20260503140121 61 163 2.6 11.3 0.00 8.11 1.62 79 1002.8
20260503131118 60 134 1.7 5.2 0.00 8.11 1.62 83 1003.0
20260503130627 61 117 1.7 5.2 0.00 8.11 1.62 83 1002.8
20260503130136 61 207 1.7 7.0 0.00 8.11 1.62 84 1002.9
20260503120111 62 160 1.7 7.0 0.04 8.11 1.62 87 1002.0